Погода в Арвайхээре

Монголия     46°15′37″N   102°46′31″E
темп.,
°C
ветер,
м/с
пор.,
м/с
влажн.,
%
обл.,
%
осадки,
мм/ч
давл.,
гПа
погр.,
м
13 апреля, вт
вт1323:00−2сз223127 0.0 102614
02:00−3з33328 0.0 102521
05:00−3зсз223241 0.0 102421
08:00−2сз25315 0.0 1024417
11:00+3зсз463126 0.0 10211667
14:00+7сз4728100 0.0 10162191
17:00+9ссз582671 0.0 10132381
20:00+5ссв354026 0.0 1013110
14 апреля, ср
ср1423:00+4ююз22465 0.0 101310
02:00+2ю22505 0.0 101215
05:000ююз22515 0.0 101012
08:00+2з244098 0.0 1007116
11:00+9з81019100 0.0 10021456
14:00+10ссз121125100 0.0 9992193
17:00−1с141862100 0.5 10091423
20:00−4ссв91767100 0.5 10151580
15 апреля, чт
чт1523:00−5с13196391 0.4 10201717
02:00−7ссз915705 0.4 10231144
05:00−7зсз49445 0.0 1023452
08:00−5юз463734 0.0 1021282
11:000зсз6143490 0.0 10162141
14:00+2ссз10164477 0.1 10122082
17:00+2ссз12164279 0.1 10122035
20:00−1ссз9165319 0.1 10161663
16 апреля, пт
пт1623:00−3ссз8157540 0.1 10211275
02:00−4с6128310 0.1 1023725
05:00−3ссз612582 0.0 1024607
08:00−2зсз25505 0.0 1025236
11:00+3з25289 0.0 10221331
14:00+6юз14190 0.0 10171999
17:00+8ююв13174 0.0 10152439
20:00+6в35265 0.0 1016110
17 апреля, сб
сб1723:00+3ссз22340 0.0 101826
02:00+2зсз11370 0.0 101710
05:00+1зюз22380 0.0 101710
08:00+3зсз22320 0.0 101746
11:00+11з68140 0.0 10131635
14:00+13зюз89110 0.0 10102959
17:00+13з89110 0.0 10093043
20:00+10з59150 0.0 1010182